Location: Macksville High School
(37.9611°N, 99.9654°W)
Time: 23:52:18
(UTC+00:00)

Cosmos 1455 Rocket - Pass Details

Date: 17 January 2021
Orbit: 605 x 629 km, 82.5° (Epoch: 07 March)

Event Time Altitude Azimuth Distance (km) Brightness Sun altitude
Rises 12:34:11 0° 197° (SSW) 2,879 6.5 -15.5°
Reaches altitude 10° 12:36:26 10° 202° (SSW) 1,974 5.6 -15.1°
Maximum altitude 12:40:43 53° 279° (W) 754 3.1 -14.3°
Drops below altitude 10° 12:45:00 10° 357° (N) 1,975 5.5 -13.5°
Sets 12:47:16 0° 2° (N) 2,880 6.3 -13.0°
